{"data":{"norad_id":67736,"intl_designator":"2026-026R","name":"STARLINK-36317","alt_names":[],"object_type":"PAYLOAD","status":"ACTIVE","operator":null,"country":"US","launch_date":"2026-02-11","launch_site_code":"AFWTR","launch_vehicle":null,"mission":null,"orbit_class":"UNKNOWN","rcs_meters":null,"size_class":null,"mass_kg":null,"dimensions":null,"purposes":["comms"],"wikipedia_slug":null,"has_3d_model":false,"image_url":null,"decayed_at":null,"tle_current":{"epoch":"2026-05-25T03:21:58.542624Z","epoch_age_seconds":59052,"freshness":"FRESH","line1":"1 67736U 26026R   26145.14026091  .00016660  00000+0  51737-3 0  9990","line2":"2 67736  97.2847 198.6869 0000921  85.4681 274.6667 15.33435579 15840","mean_motion":15.33435579,"eccentricity":9.21e-5,"inclination_deg":97.2847,"raan_deg":198.6869,"arg_perigee_deg":85.4681,"mean_anomaly_deg":274.6667,"bstar":0.00051737,"rev_number":1584,"period_min":93.906781590334,"perigee_km":464.94089936373,"apogee_km":466.20151041507,"semimajor_km":6843.7082048894,"source":"CELESTRAK","updated_at":"2026-05-25T13:38:21.689658Z"}}}